This demonstration page uses our WeatherBlox Daily Observations layout. Learn more.

Left ArrowRight Arrow

38.83388, -104.82136

Hourly Observations for August 19, 2022

Temp ( °F °C ) Dew Point ( °F °C ) Humidity (%) Winds ( mph kmh ) Pressure ( in mb ) Visibility ( mi km ) Precip ( " mm )
12:58 am 00:58 Clear 67 19.4 42 5.4 40 40 WNW 8 13 29.63 1003 10 16 0.00 0.00
1:58 am 01:58 Clear 66 18.8 42 5.6 42 42 WNW 6 9 29.62 1003 10 16 0.00 0.00
2:58 am 02:58 Clear 66 18.7 42 5.5 42 42 WNW 3 6 29.60 1002 10 16 0.00 0.00
3:58 am 03:58 Clear 65 18.4 43 5.9 44 44 WNW 7 11 29.59 1002 10 16 0.00 0.00
4:58 am 04:58 Clear 65 18.3 42 5.5 43 43 WNW 5 7 29.60 1002 10 16 0.00 0.00
5:58 am 05:58 Clear 65 18.2 42 5.7 44 44 Calm 29.59 1002 10 16 0.00 0.00
6:58 am 06:58 Sunny 68 20 41 4.9 37 37 S 3 6 29.52 1000 10 16 0.00 0.00
7:58 am 07:58 Sunny 70 21.2 44 6.7 39 39 Calm 29.70 1006 10 16 0.00 0.00
8:58 am 08:58 Sunny 71 21.9 44 6.5 37 37 Calm 29.80 1009 10 16 0.00 0.00
9:58 am 09:58 Sunny 75 23.7 47 8.5 38 38 ESE 3 6 29.84 1010 10 16 0.00 0.00
10:58 am 10:58 Sunny 75 24 47 8.4 37 37 E 7 11 29.81 1009 10 16 0.00 0.00
11:58 am 11:58 Sunny 77 25 45 7.1 32 32 NE 3 6 29.84 1010 9 14 0.00 0.00
12:58 pm 12:58 Partly Cloudy 77 25 45 7.1 32 32 Calm 29.89 1012 10 16 0.00 0.00
1:33 pm 13:33 Mostly Cloudy with Light Rain 73 23 43 6 33 33 E 8 13 29.67 1005 10 16 0.00 0.00
1:44 pm 13:44 Mostly Cloudy 75 24 41 5 29 29 ENE 3 6 29.65 1004 10 16 0.00 0.00
1:58 pm 13:58 Mostly Cloudy 78 25.3 40 4.4 26 26 N 8 13 29.79 1009 9 14 0.01 0.13
2:07 pm 14:07 Mostly Cloudy 75 24 41 5 29 29 NNW 13 20 29.74 1007 10 16 0.00 0.00
2:16 pm 14:16 Mostly Cloudy with Light Rain 73 23 43 6 33 33 NW 8 13 29.62 1003 10 16 0.00 0.00
2:26 pm 14:26 Cloudy with Light Rain 70 21 50 10 49 49 NNW 13 20 29.47 998 10 16 0.00 0.00
2:35 pm 14:35 Cloudy 70 21 50 10 49 49 NNW 9 15 29.44 997 10 16 0.00 0.00
2:58 pm 14:58 Partly Cloudy 74 23.5 46 7.6 36 36 N 6 9 29.62 1003 10 16 0.01 0.13
3:50 pm 15:50 Mostly Cloudy with Nearby Thunderstorms 73 23 46 8 38 38 NE 10 17 29.75 1008 9 14 0.00 0.00
3:58 pm 15:58 Cloudy with Nearby Thunderstorms 66 18.8 51 10.6 59 59 NE 12 19 29.49 999 7 11 0.06 1.52
4:23 pm 16:23 Cloudy 64 18 52 11 64 64 W 5 7 29.32 993 10 16 0.00 0.00
4:41 pm 16:41 Cloudy with Light Rain 64 18 50 10 59 59 WNW 21 33 29.35 994 10 16 0.00 0.00
4:58 pm 16:58 Cloudy with Light Rain 63 17.1 49 9.5 61 61 WNW 22 35 29.30 992 8 13 0.08 2.03
5:58 pm 17:58 Cloudy with Light Rain 64 17.7 48 8.8 56 56 W 15 24 29.30 992 10 16 0.04 1.02
6:31 pm 18:31 Cloudy with Rain 61 16 48 9 63 63 WSW 14 22 29.38 995 9 14 0.00 0.00
6:58 pm 18:58 Cloudy with Light Rain 62 16.5 48 8.7 60 60 Calm 29.38 995 10 16 0.13 3.30
7:11 pm 19:11 Cloudy 59 15 52 11 77 77 WNW 9 15 29.40 996 10 16 0.00 0.00
7:58 pm 19:58 Mostly Cloudy 64 17.6 46 7.9 53 53 W 6 9 29.41 996 10 16 0.01 0.25
8:58 pm 20:58 Cloudy 60 15.7 50 10 69 69 WNW 6 9 29.43 997 10 16 0.00 0.00
9:58 pm 21:58 Cloudy 62 16.4 48 9.1 62 62 WNW 8 13 29.44 997 10 16 0.00 0.00
10:58 pm 22:58 Cloudy 64 17.5 47 8.1 54 54 SSW 5 7 29.47 998 10 16 0.00 0.00
11:58 pm 23:58 Partly Cloudy 65 18.2 46 7.9 51 51 W 5 7 29.44 997 10 16 0.00 0.00

Powered by AerisWeather